| time (UTC) | temp F | wind direction | speed MPH | gust MPH | rain 1hr in | rain 24hr in | rain mn in | humidity % | barometer mb |
| 20260506210650 | 61 | 0 | 0.0 | 2.0 | 0.00 | 0.01 | 0.01 | 79 | 1011.8 |
| 20260506210148 | 61 | 0 | 0.0 | 3.0 | 0.00 | 0.01 | 0.01 | 80 | 1011.8 |
| 20260506205646 | 60 | 0 | 0.0 | 3.0 | 0.00 | 0.01 | 0.01 | 79 | 1011.9 |
| 20260506205145 | 60 | 0 | 0.0 | 3.0 | 0.00 | 0.01 | 0.01 | 79 | 1011.9 |
| 20260506204645 | 60 | 0 | 0.0 | 3.0 | 0.00 | 0.01 | 0.01 | 79 | 1012.0 |
| 20260506204629 | 60 | 0 | 0.0 | 3.0 | 0.00 | 0.01 | 0.01 | 80 | 1011.8 |
| 20260506203642 | 60 | 0 | 0.0 | 2.0 | 0.00 | 0.01 | 0.01 | 79 | 1011.8 |
| 20260506203136 | 60 | 0 | 0.0 | 2.0 | 0.00 | 0.01 | 0.01 | 79 | 1011.8 |
| 20260506202636 | 60 | 0 | 0.0 | 2.0 | 0.00 | 0.01 | 0.01 | 80 | 1012.0 |
| 20260506202132 | 59 | 0 | 0.0 | 2.0 | 0.00 | 0.01 | 0.01 | 81 | 1012.0 |
| 20260506201632 | 59 | 0 | 0.0 | 2.0 | 0.00 | 0.01 | 0.01 | 81 | 1012.2 |
| 20260506201130 | 58 | 0 | 0.0 | 1.0 | 0.00 | 0.01 | 0.01 | 82 | 1012.4 |
| 20260506200630 | 58 | 0 | 0.0 | 1.0 | 0.00 | 0.01 | 0.01 | 83 | 1012.4 |
| 20260506200127 | 58 | 0 | 0.0 | 3.0 | 0.00 | 0.01 | 0.01 | 83 | 1012.4 |
| 20260506195626 | 58 | 0 | 0.0 | 3.0 | 0.00 | 0.01 | 0.01 | 85 | 1012.4 |
| 20260506195124 | 57 | 0 | 0.0 | 2.0 | 0.00 | 0.01 | 0.01 | 86 | 1012.3 |
| 20260506194846 | 56 | 0 | 0.0 | 2.0 | 0.00 | 0.01 | 0.01 | 87 | 1012.3 |
| 20260506194124 | 56 | 0 | 0.0 | 5.0 | 0.00 | 0.01 | 0.01 | 88 | 1012.3 |
| 20260506193847 | 55 | 0 | 0.0 | 5.0 | 0.00 | 0.01 | 0.01 | 88 | 1012.4 |
| 20260506193126 | 55 | 0 | 0.0 | 3.0 | 0.00 | 0.01 | 0.01 | 88 | 1012.4 |
| 20260506192624 | 55 | 0 | 0.0 | 3.0 | 0.00 | 0.01 | 0.01 | 88 | 1012.6 |
| 20260506192124 | 55 | 0 | 0.0 | 3.0 | 0.00 | 0.01 | 0.01 | 88 | 1012.6 |
| 20260506191620 | 54 | 0 | 0.0 | 2.0 | 0.00 | 0.01 | 0.01 | 89 | 1012.4 |
| 20260506191120 | 54 | 0 | 0.0 | 2.0 | 0.00 | 0.01 | 0.01 | 88 | 1012.3 |
| 20260506190619 | 54 | 0 | 0.0 | 2.0 | 0.00 | 0.01 | 0.01 | 89 | 1012.5 |
| 20260506190118 | 54 | 0 | 0.0 | 9.0 | 0.00 | 0.01 | 0.01 | 89 | 1012.7 |
| 20260506185618 | 54 | 0 | 0.0 | 9.0 | 0.00 | 0.01 | 0.01 | 89 | 1012.7 |
| 20260506185120 | 54 | 0 | 0.0 | 3.0 | 0.00 | 0.01 | 0.01 | 89 | 1012.6 |
| 20260506184825 | 54 | 0 | 0.0 | 4.0 | 0.00 | 0.01 | 0.01 | 89 | 1012.8 |
| 20260506184709 | 54 | 0 | 0.0 | 3.0 | 0.00 | 0.01 | 0.01 | 89 | 1012.8 |
| 20260506183620 | 54 | 0 | 0.0 | 4.0 | 0.00 | 0.01 | 0.01 | 90 | 1013.1 |
| 20260506183120 | 54 | 0 | 0.0 | 3.0 | 0.00 | 0.01 | 0.01 | 90 | 1013.2 |
| 20260506182615 | 53 | 0 | 0.0 | 3.0 | 0.00 | 0.01 | 0.01 | 90 | 1013.3 |
| 20260506182115 | 54 | 0 | 0.0 | 5.0 | 0.00 | 0.01 | 0.01 | 90 | 1013.4 |
| 20260506181842 | 53 | 0 | 0.0 | 5.0 | 0.00 | 0.01 | 0.01 | 90 | 1013.3 |
| 20260506181115 | 53 | 0 | 0.0 | 3.0 | 0.00 | 0.01 | 0.01 | 90 | 1013.3 |
| 20260506180616 | 53 | 0 | 0.0 | 2.0 | 0.00 | 0.01 | 0.01 | 90 | 1013.3 |
| 20260506180115 | 53 | 0 | 0.0 | 2.0 | 0.00 | 0.01 | 0.01 | 90 | 1013.5 |
| 20260506175616 | 53 | 0 | 0.0 | 1.0 | 0.00 | 0.01 | 0.01 | 90 | 1013.6 |
| 20260506175111 | 53 | 0 | 0.0 | 1.0 | 0.00 | 0.01 | 0.01 | 90 | 1013.6 |
| 20260506174610 | 54 | 0 | 0.0 | 2.0 | 0.00 | 0.01 | 0.01 | 90 | 1013.3 |
| 20260506174110 | 54 | 0 | 0.0 | 2.0 | 0.00 | 0.01 | 0.01 | 90 | 1013.1 |
| 20260506173611 | 53 | 0 | 0.0 | 2.0 | 0.00 | 0.01 | 0.01 | 91 | 1012.9 |
| 20260506173332 | 53 | 0 | 0.0 | 3.0 | 0.00 | 0.01 | 0.01 | 90 | 1012.7 |
| 20260506172612 | 53 | 0 | 0.0 | 3.0 | 0.00 | 0.01 | 0.01 | 91 | 1012.1 |
| 20260506172554 | 54 | 0 | 0.0 | 3.0 | 0.00 | 0.01 | 0.01 | 91 | 1011.9 |
| 20260506171611 | 53 | 0 | 1.0 | 4.0 | 0.00 | 0.01 | 0.01 | 91 | 1011.6 |
| 20260506171336 | 53 | 0 | 1.0 | 5.0 | 0.00 | 0.01 | 0.01 | 92 | 1011.4 |
| 20260506170612 | 53 | 0 | 0.0 | 5.0 | 0.00 | 0.01 | 0.01 | 92 | 1011.3 |
| 20260506170105 | 53 | 0.0 | 0.0 | 0.00 | 0.01 | 0.01 | 93 | 1011.4 | |
| 20260506165544 | 53 | 0.0 | 0.0 | 0.00 | 0.01 | 0.01 | 92 | 1011.7 | |
| 20260506165253 | 53 | 0.0 | 0.0 | 0.00 | 0.01 | 0.01 | 93 | 1011.8 | |
| 20260506164523 | 52 | 0.0 | 0.0 | 0.00 | 0.01 | 0.01 | 93 | 1012.0 | |
| 20260506164022 | 52 | 0.0 | 0.0 | 0.00 | 0.01 | 0.01 | 93 | 1012.2 | |
| 20260506163520 | 52 | 0.0 | 0.0 | 0.00 | 0.01 | 0.01 | 93 | 1012.4 | |
| 20260506162945 | 52 | 0.0 | 0.0 | 0.00 | 0.01 | 0.01 | 93 | 1012.2 | |
| 20260506162443 | 52 | 0.0 | 0.0 | 0.00 | 0.01 | 0.01 | 93 | 1011.9 | |
| 20260506162200 | 52 | 0.0 | 0.0 | 0.00 | 0.01 | 0.01 | 93 | 1012.2 | |
| 20260506161428 | 53 | 0.0 | 0.0 | 0.00 | 0.01 | 0.01 | 93 | 1012.1 | |
| 20260506160922 | 52 | 0.0 | 0.0 | 0.00 | 0.01 | 0.01 | 93 | 1012.1 | |
| 20260506160412 | 52 | 0.0 | 0.0 | 0.00 | 0.01 | 0.01 | 93 | 1012.2 | |
| 20260506155905 | 52 | 0.0 | 0.0 | 0.00 | 0.01 | 0.01 | 93 | 1012.3 | |
| 20260506155330 | 52 | 0.0 | 0.0 | 0.00 | 0.01 | 0.01 | 93 | 1012.4 | |
| 20260506154826 | 52 | 0.0 | 0.0 | 0.01 | 0.01 | 0.01 | 93 | 1011.7 | |
| 20260506154324 | 52 | 0.0 | 0.0 | 0.01 | 0.01 | 0.01 | 93 | 1011.4 | |
| 20260506153821 | 51 | 0.0 | 0.0 | 0.01 | 0.01 | 0.01 | 93 | 1011.4 | |
| 20260506153321 | 51 | 0.0 | 0.0 | 0.01 | 0.01 | 0.01 | 93 | 1011.9 | |
| 20260506152820 | 51 | 0.0 | 0.0 | 0.01 | 0.01 | 0.01 | 92 | 1011.7 | |
| 20260506152305 | 51 | 0.0 | 0.0 | 0.01 | 0.01 | 0.01 | 92 | 1012.1 | |
| 20260506151758 | 51 | 0.0 | 0.0 | 0.01 | 0.01 | 0.01 | 92 | 1011.9 | |
| 20260506151226 | 51 | 0.0 | 0.0 | 0.01 | 0.01 | 0.01 | 92 | 1011.2 | |
| 20260506150725 | 51 | 0.0 | 0.0 | 0.01 | 0.01 | 0.01 | 91 | 1011.0 | |
| 20260506150217 | 51 | 0.0 | 0.0 | 0.01 | 0.01 | 0.01 | 91 | 1010.4 | |
| 20260506145657 | 51 | 0.0 | 0.0 | 0.01 | 0.01 | 0.01 | 90 | 1011.7 | |
| 20260506145126 | 51 | 0.0 | 0.0 | 0.00 | 0.00 | 0.00 | 90 | 1012.9 | |
| 20260506144626 | 51 | 0.0 | 0.0 | 0.00 | 0.00 | 0.00 | 90 | 1013.5 | |
| 20260506144123 | 51 | 0.0 | 0.0 | 0.00 | 0.00 | 0.00 | 90 | 1013.6 | |
| 20260506143613 | 51 | 0.0 | 0.0 | 0.00 | 0.00 | 0.00 | 89 | 1012.7 | |
| 20260506143107 | 52 | 0.0 | 0.0 | 0.00 | 0.00 | 0.00 | 89 | 1012.4 | |
| 20260506142526 | 52 | 0.0 | 0.0 | 0.00 | 0.00 | 0.00 | 89 | 1012.9 | |
| 20260506142026 | 52 | 0.0 | 0.0 | 0.00 | 0.00 | 0.00 | 88 | 1012.8 | |
| 20260506141453 | 52 | 0.0 | 0.0 | 0.00 | 0.00 | 0.00 | 88 | 1012.7 | |
| 20260506140940 | 52 | 0.0 | 0.0 | 0.00 | 0.00 | 0.00 | 87 | 1012.9 | |
| 20260506140430 | 52 | 0.0 | 0.0 | 0.00 | 0.00 | 0.00 | 86 | 1013.2 | |
| 20260506140136 | 53 | 0.0 | 0.0 | 0.00 | 0.00 | 0.00 | 86 | 1013.1 | |
| 20260506140015 | 52 | 0.0 | 0.0 | 0.00 | 0.00 | 0.00 | 87 | 1013.6 | |
| 20260506134907 | 53 | 0.0 | 0.0 | 0.00 | 0.00 | 0.00 | 86 | 1012.4 | |
| 20260506134326 | 53 | 0.0 | 0.0 | 0.00 | 0.00 | 0.00 | 86 | 1012.2 | |
| 20260506133823 | 53 | 0.0 | 0.0 | 0.00 | 0.00 | 0.00 | 85 | 1011.0 | |
| 20260506133315 | 53 | 0.0 | 0.0 | 0.00 | 0.00 | 0.00 | 85 | 1010.6 | |
| 20260506132805 | 53 | 0.0 | 0.0 | 0.00 | 0.00 | 0.00 | 85 | 1011.6 | |
| 20260506132307 | 53 | 0.0 | 0.0 | 0.00 | 0.00 | 0.00 | 84 | 1011.2 | |
| 20260506132002 | 54 | 0.0 | 0.0 | 0.00 | 0.00 | 0.00 | 84 | 1011.7 | |
| 20260506131223 | 54 | 0.0 | 0.0 | 0.00 | 0.00 | 0.00 | 84 | 1011.4 | |
| 20260506130709 | 54 | 0.0 | 0.0 | 0.00 | 0.00 | 0.00 | 83 | 1011.3 | |
| 20260506130147 | 54 | 0.0 | 0.0 | 0.00 | 0.00 | 0.00 | 83 | 1011.1 | |
| 20260506130113 | 54 | 0.0 | 0.0 | 0.00 | 0.00 | 0.00 | 83 | 1010.9 | |
| 20260506125123 | 55 | 0.0 | 0.0 | 0.00 | 0.00 | 0.00 | 83 | 1010.9 | |
| 20260506124610 | 55 | 0.0 | 0.0 | 0.00 | 0.00 | 0.00 | 82 | 1010.6 | |
| 20260506124041 | 55 | 0.0 | 0.0 | 0.00 | 0.00 | 0.00 | 82 | 1010.4 | |
| 20260506123535 | 55 | 0.0 | 0.0 | 0.00 | 0.00 | 0.00 | 82 | 1010.4 | |
| 20260506123022 | 55 | 0.0 | 0.0 | 0.00 | 0.00 | 0.00 | 82 | 1010.4 | |
| 20260506122521 | 56 | 0.0 | 0.0 | 0.00 | 0.00 | 0.00 | 82 | 1010.3 | |
| 20260506122241 | 56 | 0.0 | 0.0 | 0.00 | 0.00 | 0.00 | 82 | 1010.0 | |
| 20260506121441 | 56 | 0.0 | 0.0 | 0.00 | 0.00 | 0.00 | 82 | 1009.9 | |
| 20260506120925 | 56 | 0.0 | 0.0 | 0.00 | 0.00 | 0.00 | 82 | 1010.0 | |
| 20260506120426 | 56 | 0.0 | 0.0 | 0.00 | 0.00 | 0.00 | 82 | 1009.9 | |
| 20260506115920 | 57 | 0.0 | 0.0 | 0.00 | 0.00 | 0.00 | 82 | 1009.8 | |
| 20260506115644 | 57 | 0.0 | 0.0 | 0.00 | 0.00 | 0.00 | 83 | 1009.8 | |
| 20260506114839 | 57 | 0.0 | 0.0 | 0.00 | 0.00 | 0.00 | 83 | 1009.8 | |
| 20260506114322 | 57 | 0.0 | 0.0 | 0.00 | 0.00 | 0.00 | 83 | 1009.8 | |
| 20260506113818 | 57 | 0.0 | 0.0 | 0.00 | 0.00 | 0.00 | 83 | 1009.7 | |
| 20260506113317 | 57 | 0.0 | 0.0 | 0.00 | 0.00 | 0.00 | 83 | 1009.8 | |
| 20260506112815 | 58 | 0.0 | 0.0 | 0.00 | 0.00 | 0.00 | 83 | 1009.9 | |
| 20260506112257 | 58 | 0.0 | 0.0 | 0.00 | 0.00 | 0.00 | 83 | 1009.8 | |
| 20260506111739 | 58 | 0.0 | 0.0 | 0.00 | 0.00 | 0.00 | 84 | 1009.8 | |
| 20260506111227 | 58 | 0.0 | 0.0 | 0.00 | 0.00 | 0.00 | 84 | 1009.6 | |
| 20260506110719 | 58 | 0.0 | 0.0 | 0.00 | 0.00 | 0.00 | 84 | 1009.5 | |
| 20260506110219 | 58 | 0.0 | 0.0 | 0.00 | 0.00 | 0.00 | 84 | 1009.5 | |
| 20260506105703 | 58 | 0.0 | 0.0 | 0.00 | 0.00 | 0.00 | 84 | 1009.4 | |
| 20260506105145 | 58 | 0.0 | 0.0 | 0.00 | 0.00 | 0.00 | 84 | 1009.3 | |
| 20260506104640 | 59 | 0.0 | 0.0 | 0.00 | 0.00 | 0.00 | 84 | 1008.9 | |
| 20260506104121 | 59 | 0.0 | 0.0 | 0.00 | 0.00 | 0.00 | 84 | 1008.9 | |
| 20260506103607 | 59 | 0.0 | 0.0 | 0.00 | 0.00 | 0.00 | 84 | 1008.8 | |
| 20260506103031 | 59 | 0.0 | 0.0 | 0.00 | 0.00 | 0.00 | 84 | 1008.8 | |
| 20260506102527 | 59 | 0.0 | 0.0 | 0.00 | 0.00 | 0.00 | 84 | 1008.7 | |
| 20260506102246 | 59 | 0.0 | 0.0 | 0.00 | 0.00 | 0.00 | 84 | 1008.7 | |
| 20260506101507 | 59 | 0.0 | 0.0 | 0.00 | 0.00 | 0.00 | 84 | 1008.7 | |
| 20260506100946 | 59 | 0.0 | 0.0 | 0.00 | 0.00 | 0.00 | 84 | 1008.6 | |
| 20260506100425 | 59 | 0.0 | 0.0 | 0.00 | 0.00 | 0.00 | 83 | 1008.7 | |
| 20260506095923 | 59 | 0.0 | 0.0 | 0.00 | 0.00 | 0.00 | 83 | 1008.5 | |
| 20260506095419 | 59 | 0.0 | 0.0 | 0.00 | 0.00 | 0.00 | 83 | 1008.4 | |
| 20260506094908 | 59 | 0.0 | 0.0 | 0.00 | 0.00 | 0.00 | 83 | 1008.3 | |
| 20260506094326 | 60 | 0.0 | 0.0 | 0.00 | 0.00 | 0.00 | 83 | 1008.2 | |
| 20260506093816 | 60 | 0.0 | 0.0 | 0.00 | 0.00 | 0.00 | 83 | 1008.2 | |
| 20260506093259 | 60 | 0.0 | 0.0 | 0.00 | 0.00 | 0.00 | 83 | 1008.1 | |
| 20260506093013 | 60 | 0.0 | 0.0 | 0.00 | 0.00 | 0.00 | 83 | 1008.0 | |
| 20260506092229 | 60 | 0.0 | 0.0 | 0.00 | 0.00 | 0.00 | 82 | 1008.0 | |
| 20260506091722 | 60 | 0.0 | 0.0 | 0.00 | 0.00 | 0.00 | 82 | 1008.0 | |
| 20260506091221 | 60 | 0.0 | 0.0 | 0.00 | 0.00 | 0.00 | 82 | 1007.9 | |
| 20260506090719 | 60 | 0.0 | 0.0 | 0.00 | 0.00 | 0.00 | 82 | 1008.0 | |
| 20260506090139 | 60 | 0.0 | 0.0 | 0.00 | 0.00 | 0.00 | 82 | 1008.1 | |
| 20260506090113 | 60 | 0.0 | 0.0 | 0.00 | 0.00 | 0.00 | 82 | 1008.1 | |
| 20260506085115 | 60 | 0.0 | 0.0 | 0.00 | 0.00 | 0.00 | 82 | 1008.1 | |
| 20260506084614 | 60 | 0.0 | 0.0 | 0.00 | 0.00 | 0.00 | 82 | 1008.1 | |
| 20260506084055 | 61 | 0.0 | 0.0 | 0.00 | 0.00 | 0.00 | 82 | 1008.0 | |
| 20260506083746 | 61 | 0.0 | 0.0 | 0.00 | 0.00 | 0.00 | 82 | 1008.0 | |
| 20260506083021 | 61 | 0.0 | 0.0 | 0.00 | 0.00 | 0.00 | 82 | 1008.0 | |
| 20260506082502 | 61 | 0.0 | 0.0 | 0.00 | 0.00 | 0.00 | 82 | 1008.0 | |
| 20260506082001 | 61 | 0.0 | 0.0 | 0.00 | 0.00 | 0.00 | 81 | 1007.9 | |
| 20260506081707 | 61 | 0.0 | 0.0 | 0.00 | 0.00 | 0.00 | 81 | 1007.9 | |
| 20260506080931 | 61 | 0.0 | 0.0 | 0.00 | 0.00 | 0.00 | 81 | 1007.9 | |
| 20260506080427 | 62 | 0.0 | 0.0 | 0.00 | 0.00 | 0.00 | 81 | 1008.0 | |
| 20260506073417 | 62 | 0.0 | 0.0 | 0.00 | 0.00 | 0.00 | 81 | 1007.6 | |
| 20260506073134 | 62 | 0.0 | 0.0 | 0.00 | 0.00 | 0.00 | 81 | 1007.4 | |
| 20260506072412 | 62 | 0.0 | 0.0 | 0.00 | 0.00 | 0.00 | 81 | 1007.3 | |
| 20260506071912 | 62 | 0.0 | 0.0 | 0.00 | 0.00 | 0.00 | 81 | 1007.4 | |
| 20260506071341 | 62 | 0.0 | 0.0 | 0.00 | 0.00 | 0.00 | 81 | 1007.4 | |
| 20260506070829 | 62 | 0.0 | 0.0 | 0.00 | 0.00 | 0.00 | 81 | 1007.4 | |
| 20260506070540 | 62 | 0.0 | 0.0 | 0.00 | 0.00 | 0.00 | 81 | 1007.4 | |
| 20260506062345 | 63 | 0.0 | 0.0 | 0.00 | 0.00 | 0.00 | 80 | 1007.6 | |
| 20260506061620 | 63 | 0.0 | 0.0 | 0.00 | 0.00 | 0.00 | 79 | 1007.4 | |
| 20260506061111 | 63 | 0.0 | 0.0 | 0.00 | 0.00 | 0.00 | 79 | 1007.3 | |
| 20260506060556 | 63 | 0.0 | 0.0 | 0.00 | 0.00 | 0.00 | 79 | 1007.3 | |
| 20260506050921 | 65 | 0.0 | 0.0 | 0.00 | 0.00 | 0.00 | 76 | 1007.6 | |
| 20260506050416 | 65 | 0.0 | 0.0 | 0.00 | 0.00 | 0.00 | 76 | 1007.6 | |
| 20260506045045 | 66 | 0.0 | 0.0 | 0.00 | 0.00 | 0.00 | 75 | 1007.2 | |
| 20260506044926 | 66 | 0.0 | 0.0 | 0.00 | 0.00 | 0.00 | 76 | 1007.4 | |
| 20260506043820 | 66 | 0.0 | 0.0 | 0.00 | 0.00 | 0.00 | 75 | 1007.3 | |
| 20260506043318 | 67 | 0.0 | 0.0 | 0.00 | 0.00 | 0.00 | 74 | 1007.4 | |
| 20260506042729 | 67 | 0.0 | 0.0 | 0.00 | 0.00 | 0.00 | 74 | 1007.4 | |
| 20260506042216 | 67 | 0.0 | 0.0 | 0.00 | 0.00 | 0.00 | 73 | 1007.3 | |
| 20260506041716 | 67 | 0.0 | 0.0 | 0.00 | 0.00 | 0.00 | 73 | 1007.3 | |
| 20260506041155 | 68 | 0.0 | 0.0 | 0.00 | 0.00 | 0.00 | 73 | 1007.3 | |
| 20260506040649 | 68 | 0.0 | 0.0 | 0.00 | 0.00 | 0.00 | 73 | 1007.4 | |
| 20260506040127 | 68 | 0.0 | 0.0 | 0.00 | 0.00 | 0.00 | 73 | 1007.4 | |
| 20260506035625 | 69 | 0.0 | 0.0 | 0.00 | 0.00 | 0.00 | 73 | 1007.3 | |
| 20260506035125 | 69 | 0.0 | 0.0 | 0.00 | 0.00 | 0.00 | 73 | 1007.2 | |
| 20260506034622 | 69 | 0.0 | 0.0 | 0.00 | 0.00 | 0.00 | 73 | 1007.1 | |
| 20260506034110 | 69 | 0.0 | 0.0 | 0.00 | 0.00 | 0.00 | 73 | 1007.0 | |
| 20260506033527 | 69 | 0.0 | 0.0 | 0.00 | 0.00 | 0.00 | 73 | 1006.9 | |
| 20260506033024 | 69 | 0.0 | 0.0 | 0.00 | 0.00 | 0.00 | 72 | 1006.7 | |
| 20260506032500 | 69 | 0.0 | 0.0 | 0.00 | 0.00 | 0.00 | 72 | 1006.7 | |
| 20260506031925 | 69 | 0.0 | 0.0 | 0.00 | 0.00 | 0.00 | 72 | 1006.6 | |
| 20260506031423 | 70 | 0.0 | 0.0 | 0.00 | 0.00 | 0.00 | 72 | 1006.3 | |
| 20260506030851 | 70 | 0.0 | 0.0 | 0.00 | 0.00 | 0.00 | 71 | 1006.3 | |
| 20260506030328 | 70 | 0.0 | 0.0 | 0.00 | 0.00 | 0.00 | 71 | 1006.2 | |
| 20260506025826 | 70 | 0.0 | 0.0 | 0.00 | 0.00 | 0.00 | 71 | 1005.9 | |
| 20260506025542 | 70 | 0.0 | 0.0 | 0.00 | 0.00 | 0.00 | 70 | 1005.7 | |
| 20260506024820 | 71 | 0.0 | 0.0 | 0.00 | 0.00 | 0.00 | 70 | 1005.7 | |
| 20260506024314 | 71 | 0.0 | 0.0 | 0.00 | 0.00 | 0.00 | 69 | 1005.9 | |
| 20260506023813 | 71 | 0.0 | 0.0 | 0.00 | 0.00 | 0.00 | 69 | 1005.9 | |
| 20260506023523 | 71 | 0.0 | 0.0 | 0.00 | 0.00 | 0.00 | 70 | 1005.7 | |
| 20260506022743 | 72 | 0.0 | 0.0 | 0.00 | 0.00 | 0.00 | 70 | 1005.6 | |
| 20260506022458 | 72 | 0.0 | 0.0 | 0.00 | 0.00 | 0.00 | 70 | 1005.4 | |
| 20260506021725 | 73 | 0.0 | 0.0 | 0.00 | 0.00 | 0.00 | 69 | 1005.1 | |
| 20260506021224 | 73 | 0.0 | 0.0 | 0.00 | 0.00 | 0.00 | 68 | 1005.2 | |
| 20260506020722 | 73 | 0.0 | 0.0 | 0.00 | 0.00 | 0.00 | 68 | 1005.1 | |
| 20260506020152 | 74 | 0.0 | 0.0 | 0.00 | 0.00 | 0.00 | 67 | 1005.1 | |
| 20260506015626 | 74 | 0.0 | 0.0 | 0.00 | 0.00 | 0.00 | 67 | 1004.9 | |
| 20260506015342 | 75 | 0.0 | 0.0 | 0.00 | 0.00 | 0.00 | 66 | 1004.6 | |
| 20260506014538 | 75 | 0.0 | 0.0 | 0.00 | 0.00 | 0.00 | 66 | 1004.6 | |
| 20260506014022 | 76 | 0.0 | 0.0 | 0.00 | 0.00 | 0.00 | 65 | 1004.4 | |
| 20260506013505 | 76 | 0.0 | 0.0 | 0.00 | 0.00 | 0.00 | 65 | 1004.2 | |
| 20260506012935 | 77 | 0.0 | 0.0 | 0.00 | 0.00 | 0.00 | 64 | 1004.0 | |
| 20260506012425 | 78 | 0.0 | 0.0 | 0.00 | 0.00 | 0.00 | 64 | 1003.7 | |
| 20260506011925 | 78 | 0 | 0.0 | 1.0 | 0.00 | 0.00 | 0.00 | 64 | 1003.8 |
| 20260506011641 | 79 | 0 | 0.0 | 1.0 | 0.00 | 0.00 | 0.00 | 62 | 1004.0 |
| 20260506010903 | 80 | 0 | 0.0 | 4.0 | 0.00 | 0.00 | 0.00 | 61 | 1003.7 |
| 20260506010400 | 81 | 0 | 0.0 | 4.0 | 0.00 | 0.00 | 0.00 | 60 | 1003.6 |
| 20260506005900 | 82 | 0 | 0.0 | 4.0 | 0.00 | 0.00 | 0.00 | 58 | 1003.6 |
| 20260506005614 | 83 | 0 | 0.0 | 4.0 | 0.00 | 0.00 | 0.00 | 56 | 1003.5 |
| 20260506005117 | 84 | 0 | 0.0 | 3.0 | 0.00 | 0.00 | 0.00 | 54 | 1003.4 |
| 20260506004600 | 85 | 0 | 0.0 | 3.0 | 0.00 | 0.00 | 0.00 | 52 | 1003.3 |
| 20260506004058 | 87 | 0 | 0.0 | 2.0 | 0.00 | 0.00 | 0.00 | 50 | 1003.2 |
| 20260506003338 | 88 | 0 | 0.0 | 1.0 | 0.00 | 0.00 | 0.00 | 51 | 1003.2 |
| 20260506003311 | 88 | 0 | 0.0 | 2.0 | 0.00 | 0.00 | 0.00 | 49 | 1003.0 |
| 20260506002317 | 89 | 0 | 0.0 | 2.0 | 0.00 | 0.00 | 0.00 | 49 | 1002.9 |
| 20260506001812 | 89 | 0 | 0.0 | 3.0 | 0.00 | 0.00 | 0.00 | 48 | 1003.0 |
| 20260506001306 | 89 | 0 | 1.0 | 3.0 | 0.00 | 0.00 | 0.00 | 47 | 1003.0 |
| 20260506000803 | 90 | 0 | 1.0 | 4.0 | 0.00 | 0.00 | 0.00 | 46 | 1002.9 |
| 20260506000303 | 90 | 0 | 1.0 | 4.0 | 0.00 | 0.00 | 0.00 | 47 | 1003.0 |
| 20260505235803 | 90 | 0 | 2.0 | 5.0 | 0.00 | 0.00 | 0.00 | 47 | 1003.0 |
| 20260505235524 | 90 | 0 | 2.0 | 5.0 | 0.00 | 0.00 | 0.00 | 45 | 1003.1 |
| 20260505234803 | 90 | 0 | 2.0 | 6.0 | 0.00 | 0.00 | 0.00 | 45 | 1003.0 |
| 20260505234303 | 90 | 0 | 2.0 | 8.0 | 0.00 | 0.00 | 0.00 | 46 | 1002.9 |
| 20260505234024 | 91 | 0 | 2.0 | 8.0 | 0.00 | 0.00 | 0.00 | 46 | 1002.7 |
| 20260505233300 | 91 | 0 | 2.0 | 8.0 | 0.00 | 0.00 | 0.00 | 46 | 1002.7 |
| 20260505232800 | 91 | 0 | 3.0 | 8.0 | 0.00 | 0.00 | 0.00 | 45 | 1002.7 |
| 20260505232523 | 91 | 0 | 2.0 | 6.0 | 0.00 | 0.00 | 0.00 | 45 | 1002.6 |
| 20260505231757 | 91 | 0 | 3.0 | 6.0 | 0.00 | 0.00 | 0.00 | 45 | 1002.6 |
| 20260505231736 | 91 | 0 | 2.0 | 6.0 | 0.00 | 0.00 | 0.00 | 46 | 1002.6 |
| 20260505230754 | 91 | 0 | 2.0 | 5.0 | 0.00 | 0.00 | 0.00 | 46 | 1002.7 |
| 20260505230303 | 91 | 0 | 3.0 | 9.0 | 0.00 | 0.00 | 0.00 | 47 | 1002.7 |
| 20260505225752 | 91 | 0 | 3.0 | 9.0 | 0.00 | 0.00 | 0.00 | 47 | 1002.7 |
| 20260505225251 | 92 | 0 | 3.0 | 8.0 | 0.00 | 0.00 | 0.00 | 45 | 1002.7 |
| 20260505224752 | 92 | 0 | 3.0 | 8.0 | 0.00 | 0.00 | 0.00 | 46 | 1002.7 |
| 20260505224251 | 92 | 0 | 3.0 | 8.0 | 0.00 | 0.00 | 0.00 | 46 | 1002.7 |
| 20260505223752 | 92 | 0 | 2.0 | 6.0 | 0.00 | 0.00 | 0.00 | 46 | 1002.7 |
| 20260505223508 | 92 | 0 | 2.0 | 6.0 | 0.00 | 0.00 | 0.00 | 48 | 1002.7 |
| 20260505222740 | 92 | 0 | 1.0 | 4.0 | 0.00 | 0.00 | 0.00 | 48 | 1002.7 |
| 20260505222234 | 92 | 0 | 2.0 | 5.0 | 0.00 | 0.00 | 0.00 | 47 | 1002.7 |
| 20260505221728 | 92 | 0 | 2.0 | 5.0 | 0.00 | 0.00 | 0.00 | 47 | 1002.7 |
| 20260505221222 | 92 | 0 | 2.0 | 5.0 | 0.00 | 0.00 | 0.00 | 47 | 1002.6 |
| 20260505220716 | 92 | 0 | 3.0 | 6.0 | 0.00 | 0.00 | 0.00 | 47 | 1002.6 |
| 20260505220210 | 92 | 0 | 3.0 | 9.0 | 0.00 | 0.00 | 0.00 | 46 | 1002.6 |
| 20260505215704 | 92 | 0 | 3.0 | 9.0 | 0.00 | 0.00 | 0.00 | 45 | 1002.8 |
| 20260505215158 | 92 | 0 | 4.0 | 11.0 | 0.00 | 0.00 | 0.00 | 45 | 1002.6 |
| 20260505214658 | 92 | 0 | 3.0 | 11.0 | 0.00 | 0.00 | 0.00 | 45 | 1002.7 |
| 20260505214419 | 92 | 0 | 3.0 | 9.0 | 0.00 | 0.00 | 0.00 | 48 | 1002.8 |
| 20260505213654 | 92 | 0 | 3.0 | 9.0 | 0.00 | 0.00 | 0.00 | 48 | 1002.8 |
| 20260505213156 | 91 | 0 | 3.0 | 8.0 | 0.00 | 0.00 | 0.00 | 48 | 1002.7 |
| 20260505212656 | 92 | 0 | 3.0 | 8.0 | 0.00 | 0.00 | 0.00 | 48 | 1002.7 |
| 20260505212156 | 92 | 0 | 3.0 | 10.0 | 0.00 | 0.00 | 0.00 | 47 | 1002.8 |
| 20260505211656 | 92 | 0 | 3.0 | 10.0 | 0.00 | 0.00 | 0.00 | 46 | 1002.7 |